sat.trackr.live / text

‹ back to catalog

STARLINK-34183

NORAD 64254 · 2025-119X

PAYLOAD ACTIVE UNKNOWN

§ Identity

Operator
Country
US
Launch date
2025-06-03
Launch site
AFETR
Launch vehicle
Mass (kg)
RCS (m²)

Purposes: comms

External: N2YO · Heavens-Above · Gunter

§ Orbital elements

Epoch: 2026-05-24T23:36:36.431136Z

Period
94.27 min
Inclination
43.0002°
Eccentricity
0.0002010
Mean motion
15.27586360 rev/d
Perigee alt
481.7 km
Apogee alt
484.4 km
Semi-major
6,861.2 km
B*
4.9819e-4
RAAN
236.5136°
Arg perigee
264.1126°
Mean anomaly
95.9496°
Rev number
5,583

§ Raw data

STARLINK-341831 64254U 25119X   26144.98375499  .00013475  00000+0  49819-3 0  99932 64254  43.0002 236.5136 0002010 264.1126  95.9496 15.27586360 55839

JSON: /api/v1/satellites/64254 · /tle

For live sub-satellite position, see the globe view (requires WebGL).

§ Visibility from observer

Set your observer location to see the next 7 days of passes ≥ 10°. The values pass through the URL so the page stays shareable.

No JS? Fill the form by hand. The geolocation button needs JavaScript.